Skip Page Navigation
NASA JPL Caltech
NASA Logo - Jet Propulsion Laboratory + View the NASA Portal
+ Center for Near-Earth Object Studies
JPL Home Earth Solar System Stars & Galaxies Technology
JPL Solar System Dynamics
BODIES ORBITS EPHEMERIDES TOOLS PHYSICAL DATA DISCOVERY FAQ SITE MAP
JPL Small-Body Database Browser
Search: [ help ]  
152530 (2006 YY14)
Classification: Main-belt Asteroid          SPK-ID: 2152530
Ephemeris | Orbit Diagram | Orbital Elements | Mission Design | Physical Parameters | Discovery Circumstances ]

[ show orbit diagram ]
Orbital Elements at Epoch 2459200.5 (2020-Dec-17.0) TDB
Reference: JPL 19 (heliocentric ecliptic J2000)
 Element Value Uncertainty (1-sigma)   Units 
e .1911334837815915 3.5874e-08  
a 2.675699838108628 1.4711e-08 au
q 2.164284006497085 9.3405e-08 au
i 8.324668095323304 5.5161e-06 deg
node 134.8323380327476 3.0264e-05 deg
peri 309.6500541954107 3.727e-05 deg
M 103.1760546493943 1.7513e-05 deg
tp 2458742.325482136935
(2019-Sep-15.82548214)
7.8269e-05 TDB
period 1598.654135314639
4.38
1.3184e-05
3.61e-08
d
yr
n .2251894215562434 1.8571e-09 deg/d
Q 3.18711566972017 1.7523e-08 au
  Orbit Determination Parameters
   # obs. used (total)      392  
   data-arc span      6770 days (18.54 yr)  
   first obs. used      2001-10-15  
   last obs. used      2020-04-28  
   planetary ephem.      DE441  
   SB-pert. ephem.      SB441-N16  
   condition code      0  
   norm. resid. RMS      .59954  
   source      ORB  
   producer      Otto Matic  
   solution date      2021-Apr-13 19:27:31  

Additional Information
 Earth MOID = 1.19107 au 
 Jupiter MOID = 2.06145 au 
 T_jup = 3.338 
[ show covariance matrix ]

Ephemeris | Orbit Diagram | Orbital Elements | Mission Design | Physical Parameters | Discovery Circumstances ]

Physical Parameter Table
Parameter Symbol Value Units Sigma Reference Notes
absolute magnitude H 16.61   n/a E2021B55  

152530 (2006 YY14)          Discovered 2006-Dec-16 by Mt. Lemmon Survey at Mount Lemmon
Reference: 20070303/Numbers.arcLast Updated: 2007-03-07
Ephemeris | Orbit Diagram | Orbital Elements | Mission Design | Physical Parameters | Discovery Circumstances ]
ABOUT SSD CREDITS/AWARDS PRIVACY/COPYRIGHT GLOSSARY LINKS
FirstGov 2021-Apr-21 00:52 UT
(server date/time)  
NASA Home Page
Site Manager:   Ryan S. Park
Webmaster  Alan B. Chamberlin